• In Uzbekistan
  • List of Countries
  • For 7 days
  • Water Temperature
  • Satellite Maps
  • Weather Map
  • Weather Widgets
  • user-avatar
    Login

    Hourly Weather Batangas

    Today, 17 August, Friday

    Time Temperature Precipitation Wind Pressure Humidity
    00:00 +28°C° 0 mm 4 mps 753 mmHg 92%
    01:00 +28°C° 0 mm 4 mps 752 mmHg 92%
    02:00 +27°C° 0 mm 3 mps 752 mmHg 93%
    03:00 +27°C° 0 mm 3 mps 752 mmHg 94%
    04:00 +27°C° 0 mm 3 mps 752 mmHg 94%
    05:00 +27°C° 0 mm 3 mps 751 mmHg 94%
    06:00 +28°C° 0 mm 3 mps 752 mmHg 90%
    07:00 +29°C° 0 mm 3 mps 752 mmHg 86%
    08:00 +30°C° 0 mm 4 mps 752 mmHg 81%
    09:00 +30°C° 0.3 mm 4 mps 752 mmHg 80%
    10:00 +32°C° 0.3 mm 4 mps 752 mmHg 79%
    11:00 +33°C° 0.3 mm 4 mps 752 mmHg 78%
    12:00 +32°C° 0.9 mm 4 mps 751 mmHg 80%
    13:00 +32°C° 0.9 mm 4 mps 751 mmHg 82%
    14:00 +32°C° 0.9 mm 4 mps 751 mmHg 85%
    15:00 +32°C° 0.9 mm 4 mps 751 mmHg 86%
    16:00 +30°C° 0.9 mm 3 mps 751 mmHg 87%
    17:00 +30°C° 0.9 mm 3 mps 751 mmHg 88%
    18:00 +29°C° 0.9 mm 3 mps 751 mmHg 90%
    19:00 +28°C° 0.9 mm 3 mps 752 mmHg 92%
    20:00 +28°C° 0.9 mm 3 mps 752 mmHg 94%
    21:00 +27°C° 0.2 mm 3 mps 753 mmHg 94%
    22:00 +27°C° 0.2 mm 3 mps 753 mmHg 94%
    23:00 +27°C° 0.2 mm 3 mps 753 mmHg 94%

    Tomorrow, 18 August, Saturday

    Time Temperature Precipitation Wind Pressure Humidity
    00:00 +27°C° 0.1 mm 3 mps 753 mmHg 94%
    01:00 +27°C° 0.1 mm 3 mps 753 mmHg 94%
    02:00 +27°C° 0.1 mm 3 mps 753 mmHg 94%
    03:00 +27°C° 0.1 mm 3 mps 753 mmHg 94%
    04:00 +27°C° 0.1 mm 3 mps 753 mmHg 94%
    05:00 +27°C° 0.1 mm 3 mps 753 mmHg 94%
    06:00 +28°C° 0 mm 3 mps 753 mmHg 91%
    07:00 +28°C° 0 mm 3 mps 753 mmHg 89%
    08:00 +29°C° 0 mm 3 mps 753 mmHg 86%
    09:00 +30°C° 0 mm 3 mps 753 mmHg 81%
    10:00 +31°C° 0 mm 3 mps 753 mmHg 75%
    11:00 +33°C° 0 mm 3 mps 753 mmHg 70%
    12:00 +33°C° 0.5 mm 4 mps 753 mmHg 72%
    13:00 +33°C° 0.5 mm 4 mps 753 mmHg 74%
    14:00 +33°C° 0.5 mm 4 mps 753 mmHg 76%
    15:00 +32°C° 0.2 mm 4 mps 753 mmHg 78%
    16:00 +32°C° 0.2 mm 4 mps 752 mmHg 79%
    17:00 +30°C° 0.2 mm 4 mps 752 mmHg 81%
    18:00 +29°C° 0 mm 3 mps 753 mmHg 83%
    19:00 +29°C° 0 mm 3 mps 753 mmHg 86%
    20:00 +28°C° 0 mm 3 mps 754 mmHg 89%
    21:00 +28°C° 0 mm 3 mps 754 mmHg 90%
    22:00 +27°C° 0 mm 3 mps 754 mmHg 90%
    23:00 +27°C° 0 mm 3 mps 755 mmHg 90%

    Day after tomorrow, 19 August, Sunday

    Time Temperature Precipitation Wind Pressure Humidity
    00:00 +27°C° 0 mm 3 mps 754 mmHg 90%
    01:00 +27°C° 0 mm 3 mps 754 mmHg 90%
    02:00 +27°C° 0 mm 3 mps 754 mmHg 90%
    03:00 +27°C° 0 mm 3 mps 754 mmHg 90%
    04:00 +27°C° 0 mm 3 mps 753 mmHg 90%
    05:00 +27°C° 0 mm 3 mps 753 mmHg 91%
    06:00 +28°C° 0 mm 3 mps 754 mmHg 86%
    07:00 +29°C° 0 mm 3 mps 754 mmHg 82%
    08:00 +30°C° 0 mm 3 mps 755 mmHg 78%
    09:00 +31°C° 0.5 mm 3 mps 755 mmHg 80%
    10:00 +31°C° 0.5 mm 3 mps 755 mmHg 82%
    11:00 +31°C° 0.5 mm 3 mps 755 mmHg 84%
    12:00 +32°C° 1.1 mm 4 mps 754 mmHg 84%
    13:00 +32°C° 1.1 mm 4 mps 754 mmHg 85%
    14:00 +32°C° 1.1 mm 4 mps 753 mmHg 86%
    15:00 +30°C° 1.1 mm 4 mps 753 mmHg 87%
    16:00 +30°C° 1.1 mm 4 mps 753 mmHg 89%
    17:00 +29°C° 1.1 mm 4 mps 753 mmHg 91%
    18:00 +28°C° 0.4 mm 4 mps 753 mmHg 92%
    19:00 +28°C° 0.4 mm 4 mps 754 mmHg 93%
    20:00 +27°C° 0.4 mm 4 mps 754 mmHg 95%
    21:00 +27°C° 0 mm 4 mps 755 mmHg 95%
    22:00 +27°C° 0 mm 4 mps 755 mmHg 95%
    23:00 +27°C° 0 mm 4 mps 755 mmHg 95%

    20 August, Monday

    Time Temperature Precipitation Wind Pressure Humidity
    00:00 +27°C° 0 mm 4 mps 755 mmHg 94%
    01:00 +27°C° 0 mm 4 mps 754 mmHg 94%
    02:00 +27°C° 0 mm 4 mps 754 mmHg 94%
    03:00 +27°C° 0.1 mm 4 mps 753 mmHg 94%
    04:00 +27°C° 0.1 mm 4 mps 753 mmHg 94%
    05:00 +27°C° 0.1 mm 4 mps 753 mmHg 93%
    06:00 +28°C° 0.1 mm 4 mps 754 mmHg 91%
    07:00 +28°C° 0.1 mm 4 mps 754 mmHg 89%
    08:00 +29°C° 0.1 mm 4 mps 755 mmHg 86%
    09:00 +30°C° 0.1 mm 4 mps 755 mmHg 82%
    10:00 +32°C° 0.1 mm 4 mps 754 mmHg 77%
    11:00 +32°C° 0.1 mm 4 mps 754 mmHg 72%
    12:00 +32°C° 0.1 mm 5 mps 754 mmHg 72%
    13:00 +32°C° 0.1 mm 5 mps 753 mmHg 71%
    14:00 +33°C° 0.1 mm 5 mps 753 mmHg 71%
    15:00 +32°C° 0.2 mm 5 mps 753 mmHg 75%
    16:00 +30°C° 0.2 mm 5 mps 753 mmHg 79%
    17:00 +29°C° 0.2 mm 5 mps 752 mmHg 82%
    18:00 +29°C° 0.2 mm 5 mps 753 mmHg 85%
    19:00 +28°C° 0.2 mm 4 mps 753 mmHg 88%
    20:00 +28°C° 0.2 mm 4 mps 754 mmHg 91%
    21:00 +28°C° 0.1 mm 4 mps 754 mmHg 91%
    22:00 +28°C° 0.1 mm 4 mps 754 mmHg 92%
    23:00 +27°C° 0.1 mm 4 mps 754 mmHg 92%

    21 August, Tuesday

    Time Temperature Precipitation Wind Pressure Humidity
    00:00 +27°C° 0.2 mm 4 mps 753 mmHg 93%
    01:00 +27°C° 0.2 mm 4 mps 753 mmHg 93%
    02:00 +27°C° 0.2 mm 4 mps 752 mmHg 93%
    03:00 +27°C° 0.2 mm 4 mps 752 mmHg 93%
    04:00 +27°C° 0.2 mm 4 mps 752 mmHg 92%
    05:00 +27°C° 0.2 mm 4 mps 752 mmHg 92%
    06:00 +28°C° 0.3 mm 4 mps 752 mmHg 90%
    07:00 +28°C° 0.3 mm 4 mps 753 mmHg 88%
    08:00 +29°C° 0.3 mm 4 mps 753 mmHg 85%
    09:00 +30°C° 0.3 mm 5 mps 753 mmHg 81%
    10:00 +32°C° 0.3 mm 5 mps 753 mmHg 78%
    11:00 +32°C° 0.3 mm 5 mps 753 mmHg 74%
    12:00 +32°C° 0.6 mm 6 mps 753 mmHg 75%
    13:00 +32°C° 0.6 mm 6 mps 752 mmHg 76%
    14:00 +32°C° 0.6 mm 6 mps 751 mmHg 77%
    15:00 +32°C° 0.3 mm 6 mps 752 mmHg 78%
    16:00 +30°C° 0.3 mm 6 mps 752 mmHg 79%
    17:00 +30°C° 0.3 mm 6 mps 752 mmHg 80%
    18:00 +29°C° 0.2 mm 5 mps 752 mmHg 83%
    19:00 +29°C° 0.2 mm 5 mps 753 mmHg 85%
    20:00 +28°C° 0.2 mm 5 mps 753 mmHg 87%
    21:00 +28°C° 0.1 mm 4 mps 753 mmHg 88%
    22:00 +28°C° 0.1 mm 4 mps 753 mmHg 89%
    23:00 +28°C° 0.1 mm 4 mps 754 mmHg 90%

    22 August, Wednesday

    Time Temperature Precipitation Wind Pressure Humidity
    00:00 +28°C° 0.2 mm 4 mps 753 mmHg 90%
    01:00 +28°C° 0.2 mm 4 mps 753 mmHg 91%
    02:00 +28°C° 0.2 mm 4 mps 752 mmHg 91%
    03:00 +27°C° 0.2 mm 4 mps 752 mmHg 92%
    04:00 +27°C° 0.2 mm 4 mps 752 mmHg 92%
    05:00 +27°C° 0.2 mm 4 mps 753 mmHg 93%
    06:00 +28°C° 0.1 mm 4 mps 753 mmHg 90%
    07:00 +29°C° 0.1 mm 4 mps 754 mmHg 87%
    08:00 +29°C° 0.1 mm 4 mps 754 mmHg 84%
    09:00 +30°C° 0.1 mm 4 mps 754 mmHg 79%
    10:00 +32°C° 0.1 mm 4 mps 754 mmHg 74%
    11:00 +33°C° 0.1 mm 5 mps 754 mmHg 70%
    12:00 +32°C° 0.2 mm 5 mps 753 mmHg 72%
    13:00 +32°C° 0.2 mm 5 mps 753 mmHg 74%
    14:00 +32°C° 0.2 mm 5 mps 752 mmHg 77%
    15:00 +30°C° 0.2 mm 5 mps 752 mmHg 80%
    16:00 +29°C° 0.2 mm 5 mps 753 mmHg 84%
    17:00 +28°C° 0.2 mm 5 mps 753 mmHg 88%
    18:00 +28°C° 0.2 mm 4 mps 753 mmHg 89%
    19:00 +28°C° 0.2 mm 4 mps 754 mmHg 91%
    20:00 +28°C° 0.2 mm 4 mps 754 mmHg 92%
    21:00 +28°C° 0.1 mm 4 mps 754 mmHg 92%
    22:00 +27°C° 0.1 mm 4 mps 754 mmHg 93%
    23:00 +27°C° 0.1 mm 3 mps 754 mmHg 93%
    Show more